DW4168 Weather Reports


time (UTC)temp
F
wind
direction
speed
knots
gust
knots
rain 1hr
in
rain 24hr
in
rain mn
in
humidity
%
barometer
mb
20260505111558 45 167 4.3 10.4 0.00 0.00 0.00 87 1005.4
20260505101523 43 147 5.2 13.9 0.00 0.00 0.00 90 1005.2
20260505100025 42 197 5.2 12.2 0.00 0.00 0.00 91 1005.3
20260505094502 41 175 3.5 7.0 0.00 0.00 0.00 91 1005.4
20260505093002 41 182 3.5 8.7 0.00 0.00 0.00 91 1005.3
20260505091546 40 153 3.5 7.0 0.00 0.00 0.00 91 1005.4
20260505090046 41 176 4.3 7.0 0.00 0.00 0.00 90 1005.4
20260505084524 41 158 4.3 8.7 0.00 0.00 0.00 89 1005.5
20260505083023 42 158 0.0 6.1 0.00 0.00 0.00 88 1005.8
20260505081510 42 144 0.9 9.6 0.00 0.00 0.00 88 1005.8
20260505080005 42 161 2.6 7.8 0.00 0.00 0.00 87 1006.0
20260505074549 43 136 3.5 7.8 0.00 0.00 0.00 86 1006.0
20260505073101 43 194 3.5 6.1 0.00 0.00 0.00 88 1006.0
20260505071528 43 207 0.9 6.1 0.00 0.00 0.00 88 1006.1
20260505070028 42 202 2.6 6.1 0.00 0.00 0.00 89 1006.1
20260505064532 42 201 2.6 7.0 0.00 0.00 0.00 90 1006.2
20260505063014 41 194 3.5 4.3 0.00 0.00 0.00 90 1006.1
20260505061528 43 187 1.7 4.3 0.00 0.00 0.00 89 1006.2
20260505060013 42 211 2.6 5.2 0.00 0.00 0.00 90 1006.4
20260505054512 42 191 3.5 6.1 0.00 0.00 0.00 89 1006.3
20260505053011 41 193 0.9 4.3 0.00 0.00 0.00 89 1006.1
20260505051510 43 192 0.9 5.2 0.00 0.00 0.00 88 1006.1
20260505041533 43 209 2.6 6.1 0.00 0.00 0.00 87 1006.4
20260505040032 42 193 5.2 6.1 0.00 0.00 0.00 87 1006.4
20260505034513 43 200 3.5 6.1 0.00 0.00 0.00 87 1006.2
20260505033013 42 196 3.5 6.1 0.00 0.00 0.00 86 1006.1
20260505031609 42 207 3.5 5.2 0.00 0.00 0.00 86 1006.1
20260505030054 42 212 5.2 6.1 0.00 0.00 0.00 86 1006.2
20260505024540 42 209 4.3 7.8 0.00 0.00 0.00 86 1006.0
20260505023035 42 220 5.2 7.0 0.00 0.00 0.00 86 1006.0
20260505021520 41 210 5.2 6.1 0.00 0.00 0.00 86 1006.0
20260505020027 42 209 6.1 7.8 0.00 0.00 0.00 85 1006.1
20260505014605 41 219 4.3 6.1 0.00 0.00 0.00 85 1005.8
20260505013107 42 227 4.3 7.0 0.00 0.02 0.00 84 1005.6
20260505011536 42 233 4.3 7.8 0.00 0.02 0.00 83 1005.6
20260505010034 42 227 3.5 7.8 0.00 0.02 0.00 82 1005.5
20260505004533 42 212 5.2 7.8 0.00 0.02 0.00 82 1005.5
20260505003011 43 215 2.6 7.0 0.00 0.03 0.00 80 1005.2
20260505001555 44 242 3.5 10.4 0.00 0.03 0.00 80 1005.0
20260505000106 44 247 5.2 7.8 0.00 0.03 0.00 79 1004.6
20260504234529 45 279 4.3 11.3 0.00 0.03 0.00 78 1004.4
20260504233026 46 244 6.1 10.4 0.00 0.04 0.00 77 1004.0
20260504231507 46 248 4.3 10.4 0.00 0.04 0.00 77 1003.9
20260504230006 47 252 5.2 7.8 0.00 0.04 0.00 75 1003.7
20260504224548 47 256 8.7 13.0 0.00 0.04 0.00 74 1003.7
20260504223047 48 269 5.2 13.9 0.00 0.05 0.00 74 1003.5
20260504221532 47 253 10.4 14.8 0.00 0.05 0.00 74 1003.5
20260504220029 48 255 6.1 13.9 0.00 0.05 0.00 73 1003.6
20260504214518 47 255 8.7 15.6 0.00 0.05 0.00 75 1003.4
20260504213016 48 238 8.7 13.9 0.00 0.06 0.00 75 1003.3
20260504211514 47 257 7.8 12.2 0.00 0.06 0.00 75 1003.2
20260504210021 47 253 10.4 13.9 0.00 0.06 0.00 75 1003.1
20260504204513 49 252 7.8 13.0 0.00 0.06 0.00 72 1003.0
20260504203012 47 266 7.0 10.4 0.00 0.07 0.00 73 1003.0
20260504201513 47 257 6.1 9.6 0.00 0.07 0.00 73 1003.2
20260504200011 47 284 4.3 9.6 0.00 0.07 0.00 74 1003.1
20260504194553 46 325 5.2 7.8 0.00 0.07 0.00 73 1003.3
20260504193051 46 327 5.2 10.4 0.00 0.11 0.00 72 1003.3
20260504191539 46 343 7.0 12.2 0.00 0.11 0.00 71 1003.3
20260504190032 47 289 7.8 13.0 0.00 0.11 0.00 68 1003.3
20260504184515 47 304 6.1 13.0 0.00 0.11 0.00 65 1003.4
20260504183013 48 302 5.2 15.6 0.00 0.13 0.00 64 1003.3
20260504181557 50 238 6.1 12.2 0.00 0.13 0.00 55 1003.0
20260504180059 50 257 9.6 18.2 0.00 0.13 0.00 54 1002.9
20260504174535 51 345 7.8 18.2 0.00 0.13 0.00 50 1002.8
20260504173037 52 229 9.6 13.9 0.00 0.15 0.00 47 1002.5
20260504171517 53 313 9.6 15.6 0.00 0.15 0.00 43 1002.3